TimeMDT,TemperatureF,Dew PointF,Humidity,Sea Level PressureIn,VisibilityMPH,Wind Direction,Wind SpeedMPH,Gust SpeedMPH,PrecipitationIn,Events,Conditions,WindDirDegrees,DateUTC
12:56 AM,69.1,62.1,78,29.86,-9999.0,South,4.6,-,N/A,,Unknown,170,2013-07-11 06:56:00
1:56 AM,66.0,61.0,84,29.83,-9999.0,South,6.9,-,N/A,,Unknown,170,2013-07-11 07:56:00
2:56 AM,64.9,61.0,87,29.81,-9999.0,South,5.8,-,N/A,,Unknown,170,2013-07-11 08:56:00
3:56 AM,64.0,61.0,90,29.80,-9999.0,South,4.6,-,N/A,,Unknown,190,2013-07-11 09:56:00
4:56 AM,63.0,61.0,93,29.78,-9999.0,South,5.8,-,N/A,,Unknown,190,2013-07-11 10:56:00
5:56 AM,63.0,61.0,93,29.78,-9999.0,SSE,4.6,-,N/A,,Unknown,160,2013-07-11 11:56:00
6:56 AM,64.0,62.1,93,29.78,-9999.0,SE,5.8,-,N/A,,Unknown,130,2013-07-11 12:56:00
7:56 AM,70.0,64.0,81,29.77,-9999.0,South,4.6,-,N/A,,Unknown,180,2013-07-11 13:56:00
8:56 AM,80.1,64.9,60,29.75,-9999.0,East,3.5,-,N/A,,Unknown,100,2013-07-11 14:56:00
9:56 AM,88.0,64.9,46,29.72,-9999.0,SE,10.4,-,N/A,,Unknown,140,2013-07-11 15:56:00
10:56 AM,93.0,60.1,33,29.69,-9999.0,SSE,13.8,-,N/A,,Unknown,150,2013-07-11 16:56:00
11:56 AM,95.0,60.1,31,29.68,-9999.0,SSE,18.4,25.3,N/A,,Unknown,150,2013-07-11 17:56:00
12:56 PM,99.0,54.0,22,29.65,-9999.0,SSE,18.4,-,N/A,,Unknown,150,2013-07-11 18:56:00
1:56 PM,100.0,53.1,21,29.63,-9999.0,South,17.3,25.3,N/A,,Unknown,180,2013-07-11 19:56:00
2:56 PM,100.9,48.9,17,29.61,-9999.0,SSE,19.6,26.5,N/A,,Unknown,150,2013-07-11 20:56:00
3:56 PM,102.0,48.9,17,29.57,-9999.0,South,18.4,27.6,N/A,,Unknown,170,2013-07-11 21:56:00
4:56 PM,100.0,45.0,15,29.55,-9999.0,South,15.0,23.0,N/A,,Unknown,170,2013-07-11 22:56:00
5:56 PM,99.0,46.0,16,29.54,-9999.0,South,23.0,28.8,N/A,,Unknown,170,2013-07-11 23:56:00
6:56 PM,95.0,46.0,19,29.53,-9999.0,SSE,19.6,-,N/A,,Unknown,160,2013-07-12 00:56:00
7:56 PM,93.0,53.1,26,29.52,-9999.0,SSE,12.7,-,N/A,,Unknown,160,2013-07-12 01:56:00
8:56 PM,91.9,54.0,27,29.51,-9999.0,SSE,18.4,32.2,N/A,,Unknown,160,2013-07-12 02:56:00
9:56 PM,86.0,54.0,33,29.53,-9999.0,SW,5.8,-,N/A,,Unknown,220,2013-07-12 03:56:00
10:56 PM,80.1,55.9,43,29.54,-9999.0,South,10.4,-,N/A,,Unknown,190,2013-07-12 04:56:00
11:56 PM,80.1,53.1,39,29.54,-9999.0,South,13.8,-,N/A,,Unknown,180,2013-07-12 05:56:00